"Sample Date","Sample Time","Sample Value","Units","Flow Rate","Sample Interval","Number Channels","Micron Size 0","Counts/Channel 0","Micron Size 1","Counts/Channel 1","Micron Size 2","Counts/Channel 2","Micron Size 3","Counts/Channel 3","Micron Size 4","Counts/Channel 4","Micron Size 5","Counts/Channel 5","Micron Size 6","Counts/Channel 6","Micron Size 7","Counts/Channel 7","Micron Size 8","Counts/Channel 8","Micron Size 9","Counts/Channel 9","Micron Size 10","Counts/Channel 10","Micron Size 11","Counts/Channel 11","Micron Size 12","Counts/Channel 12","Micron Size 13","Counts/Channel 13","Micron Size 14","Counts/Channel 14","Micron Size 15","Counts/Channel 15","Micron Size 16","Counts/Channel 16","Micron Size 17","Counts/Channel 17","Micron Size 18","Counts/Channel 18","Micron Size 19","Counts/Channel 19","Micron Size 20","Counts/Channel 20","Micron Size 21","Counts/Channel 21","Micron Size 22","Counts/Channel 22","Micron Size 23","Counts/Channel 23","Micron Size 24","Counts/Channel 24","Micron Size 25","Counts/Channel 25","Micron Size 26","Counts/Channel 26","Micron Size 27","Counts/Channel 27","Micron Size 28","Counts/Channel 28","Micron Size 29","Counts/Channel 29","Micron Size 30","Counts/Channel 30","Micron Size 31","Counts/Channel 31"
"03/05/08","13:00:00",21895.000,"cc",28302.613,6.00,6,0.100,19728.000,0.200,883.000,0.300,516.000,0.500,564.000,1.000,204.000,5.000,0
"03/05/08","13:00:06",21619.000,"cc",28279.428,6.00,6,0.100,19600.000,0.200,888.000,0.300,444.000,0.500,506.000,1.000,181.000,5.000,0
"03/05/08","13:00:12",21549.000,"cc",28351.324,6.00,6,0.100,19524.000,0.200,877.000,0.300,426.000,0.500,527.000,1.000,195.000,5.000,0
"03/05/08","13:00:18",21860.000,"cc",28308.031,6.00,6,0.100,19734.000,0.200,892.000,0.300,465.000,0.500,564.000,1.000,205.000,5.000,0
"03/05/08","13:00:24",21598.000,"cc",28348.461,6.00,6,0.100,19568.000,0.200,827.000,0.300,454.000,0.500,543.000,1.000,206.000,5.000,0
"03/05/08","13:00:30",21173.000,"cc",28344.303,6.00,6,0.100,19303.000,0.200,783.000,0.300,431.000,0.500,500.000,1.000,156.000,5.000,0
"03/05/08","13:00:36",21669.000,"cc",28265.820,6.00,6,0.100,19512.000,0.200,913.000,0.300,497.000,0.500,549.000,1.000,198.000,5.000,0
"03/05/08","13:00:42",21934.000,"cc",28302.721,6.00,6,0.100,19771.000,0.200,885.000,0.300,491.000,0.500,584.000,1.000,203.000,5.000,0
"03/05/08","13:00:48",21181.000,"cc",28317.598,6.00,6,0.100,19078.000,0.200,876.000,0.300,508.000,0.500,537.000,1.000,182.000,5.000,0
"03/05/08","13:00:54",21005.000,"cc",28308.621,6.00,6,0.100,18814.000,0.200,889.000,0.300,518.000,0.500,599.000,1.000,185.000,5.000,0
"03/05/08","13:01:00",21034.000,"cc",28285.615,6.00,6,0.100,19003.000,0.200,837.000,0.300,435.000,0.500,565.000,1.000,194.000,5.000,0
"03/05/08","13:01:06",21197.000,"cc",28370.049,6.00,6,0.100,19046.000,0.200,917.000,0.300,471.000,0.500,564.000,1.000,199.000,5.000,0
"03/05/08","13:01:12",20902.000,"cc",28298.551,6.00,6,0.100,18931.000,0.200,849.000,0.300,453.000,0.500,500.000,1.000,169.000,5.000,0
"03/05/08","13:01:18",21352.000,"cc",28299.096,6.00,6,0.100,19288.000,0.200,857.000,0.300,452.000,0.500,546.000,1.000,209.000,5.000,0
"03/05/08","13:01:24",21616.000,"cc",28374.535,6.00,6,0.100,19452.000,0.200,882.000,0.300,500.000,0.500,573.000,1.000,209.000,5.000,0
"03/05/08","13:01:30",21607.000,"cc",28316.719,6.00,6,0.100,19290.000,0.200,895.000,0.300,546.000,0.500,636.000,1.000,240.000,5.000,0
"03/05/08","13:01:36",21059.000,"cc",28313.008,6.00,6,0.100,18864.000,0.200,896.000,0.300,511.000,0.500,594.000,1.000,194.000,5.000,0
"03/05/08","13:01:42",20848.000,"cc",28264.023,6.00,6,0.100,18707.000,0.200,886.000,0.300,493.000,0.500,582.000,1.000,180.000,5.000,0
"03/05/08","13:01:48",21613.000,"cc",28311.842,6.00,6,0.100,19621.000,0.200,853.000,0.300,437.000,0.500,521.000,1.000,181.000,5.000,0
"03/05/08","13:01:54",21736.000,"cc",28289.441,6.00,6,0.100,19643.000,0.200,868.000,0.300,490.000,0.500,576.000,1.000,159.000,5.000,0
"03/05/08","13:02:00",21577.000,"cc",28341.502,6.00,6,0.100,19505.000,0.200,862.000,0.300,509.000,0.500,532.000,1.000,169.000,5.000,0
"03/05/08","13:02:06",21816.000,"cc",28339.928,6.00,6,0.100,19681.000,0.200,886.000,0.300,500.000,0.500,552.000,1.000,197.000,5.000,0
"03/05/08","13:02:12",21542.000,"cc",28267.143,6.00,6,0.100,19436.000,0.200,889.000,0.300,472.000,0.500,553.000,1.000,192.000,5.000,0
"03/05/08","13:02:18",21757.000,"cc",28339.512,6.00,6,0.100,19678.000,0.200,847.000,0.300,506.000,0.500,544.000,1.000,182.000,5.000,0
"03/05/08","13:02:24",21882.000,"cc",28347.047,6.00,6,0.100,19812.000,0.200,861.000,0.300,505.000,0.500,515.000,1.000,189.000,5.000,0
"03/05/08","13:02:30",22275.000,"cc",28249.305,6.00,6,0.100,20220.000,0.200,885.000,0.300,434.000,0.500,529.000,1.000,207.000,5.000,0
"03/05/08","13:02:36",22471.000,"cc",28285.625,6.00,6,0.100,20339.000,0.200,912.000,0.300,449.000,0.500,582.000,1.000,189.000,5.000,0
"03/05/08","13:02:42",22179.000,"cc",28324.305,6.00,6,0.100,20021.000,0.200,926.000,0.300,473.000,0.500,577.000,1.000,182.000,5.000,0
"03/05/08","13:02:48",22450.000,"cc",28267.625,6.00,6,0.100,20178.000,0.200,920.000,0.300,534.000,0.500,604.000,1.000,214.000,5.000,0
"03/05/08","13:02:54",21893.000,"cc",28380.879,6.00,6,0.100,19673.000,0.200,918.000,0.300,500.000,0.500,585.000,1.000,217.000,5.000,0
"03/05/08","13:03:00",21761.000,"cc",28321.025,6.00,6,0.100,19532.000,0.200,893.000,0.300,543.000,0.500,583.000,1.000,210.000,5.000,0
"03/05/08","13:03:06",21749.000,"cc",28300.160,6.00,6,0.100,19693.000,0.200,831.000,0.300,473.000,0.500,555.000,1.000,197.000,5.000,0
"03/05/08","13:03:12",22018.000,"cc",28327.254,6.00,6,0.100,19815.000,0.200,935.000,0.300,503.000,0.500,568.000,1.000,197.000,5.000,0
"03/05/08","13:03:18",22364.000,"cc",28311.941,6.00,6,0.100,19995.000,0.200,949.000,0.300,530.000,0.500,683.000,1.000,207.000,5.000,0
"03/05/08","13:03:24",22354.000,"cc",28376.309,6.00,6,0.100,20151.000,0.200,928.000,0.300,490.000,0.500,570.000,1.000,215.000,5.000,0
"03/05/08","13:03:30",22314.000,"cc",28349.707,6.00,6,0.100,20259.000,0.200,847.000,0.300,475.000,0.500,530.000,1.000,203.000,5.000,0
"03/05/08","13:03:36",21585.000,"cc",28267.438,6.00,6,0.100,19675.000,0.200,843.000,0.300,438.000,0.500,478.000,1.000,151.000,5.000,0
"03/05/08","13:03:42",21328.000,"cc",28216.522,6.00,6,0.100,19434.000,0.200,863.000,0.300,424.000,0.500,434.000,1.000,173.000,5.000,0
"03/05/08","13:03:48",21906.000,"cc",28335.127,6.00,6,0.100,19825.000,0.200,891.000,0.300,455.000,0.500,535.000,1.000,200.000,5.000,0
"03/05/08","13:03:54",21560.000,"cc",28331.539,6.00,6,0.100,19619.000,0.200,860.000,0.300,438.000,0.500,495.000,1.000,148.000,5.000,0
"03/05/08","13:04:00",22039.000,"cc",28344.723,6.00,6,0.100,19936.000,0.200,896.000,0.300,462.000,0.500,512.000,1.000,233.000,5.000,0
"03/05/08","13:04:06",21888.000,"cc",28254.332,6.00,6,0.100,19706.000,0.200,911.000,0.300,494.000,0.500,591.000,1.000,186.000,5.000,0
"03/05/08","13:04:12",21776.000,"cc",28427.662,6.00,6,0.100,19807.000,0.200,882.000,0.300,426.000,0.500,496.000,1.000,165.000,5.000,0
"03/05/08","13:04:18",21590.000,"cc",28290.145,6.00,6,0.100,19596.000,0.200,874.000,0.300,407.000,0.500,535.000,1.000,178.000,5.000,0
"03/05/08","13:04:24",21815.000,"cc",28288.637,6.00,6,0.100,19821.000,0.200,896.000,0.300,434.000,0.500,502.000,1.000,162.000,5.000,0
"03/05/08","13:04:30",21830.000,"cc",28338.809,6.00,6,0.100,19582.000,0.200,939.000,0.300,489.000,0.500,596.000,1.000,224.000,5.000,0
"03/05/08","13:04:36",21699.000,"cc",28278.865,6.00,6,0.100,19477.000,0.200,937.000,0.300,507.000,0.500,558.000,1.000,220.000,5.000,0
"03/05/08","13:04:42",21779.000,"cc",28299.477,6.00,6,0.100,19473.000,0.200,931.000,0.300,552.000,0.500,593.000,1.000,230.000,5.000,0
"03/05/08","13:04:48",21603.000,"cc",28385.928,6.00,6,0.100,19416.000,0.200,914.000,0.300,494.000,0.500,574.000,1.000,205.000,5.000,0
"03/05/08","13:04:54",21260.000,"cc",28276.607,6.00,6,0.100,19131.000,0.200,917.000,0.300,478.000,0.500,537.000,1.000,197.000,5.000,0
"03/05/08","13:05:00",21301.000,"cc",28326.744,6.00,6,0.100,19178.000,0.200,863.000,0.300,489.000,0.500,564.000,1.000,207.000,5.000,0
"03/05/08","13:05:06",20818.000,"cc",28354.971,6.00,6,0.100,18707.000,0.200,916.000,0.300,457.000,0.500,554.000,1.000,184.000,5.000,0
"03/05/08","13:05:12",21152.000,"cc",28332.303,6.00,6,0.100,18998.000,0.200,919.000,0.300,465.000,0.500,550.000,1.000,220.000,5.000,0
"03/05/08","13:05:18",21440.000,"cc",28277.272,6.00,6,0.100,19176.000,0.200,938.000,0.300,508.000,0.500,617.000,1.000,201.000,5.000,0
"03/05/08","13:05:24",21208.000,"cc",28279.551,6.00,6,0.100,18870.000,0.200,956.000,0.300,530.000,0.500,624.000,1.000,228.000,5.000,0
"03/05/08","13:05:30",20720.000,"cc",28385.807,6.00,6,0.100,18506.000,0.200,883.000,0.300,537.000,0.500,583.000,1.000,211.000,5.000,0
"03/05/08","13:05:36",20669.000,"cc",28289.422,6.00,6,0.100,18332.000,0.200,918.000,0.300,545.000,0.500,652.000,1.000,222.000,5.000,0
"03/05/08","13:05:42",20394.000,"cc",28300.697,6.00,6,0.100,18110.000,0.200,930.000,0.300,514.000,0.500,623.000,1.000,217.000,5.000,0
"03/05/08","13:05:48",20679.000,"cc",28264.520,6.00,6,0.100,18338.000,0.200,986.000,0.300,541.000,0.500,601.000,1.000,213.000,5.000,0
"03/05/08","13:05:54",20877.000,"cc",28296.883,6.00,6,0.100,18390.000,0.200,1019.000,0.300,537.000,0.500,693.000,1.000,238.000,5.000,0
"03/05/08","13:06:00",20389.000,"cc",28351.434,6.00,6,0.100,18277.000,0.200,845.000,0.300,476.000,0.500,603.000,1.000,188.000,5.000,0
"03/05/08","13:06:06",20769.000,"cc",28294.984,6.00,6,0.100,18481.000,0.200,933.000,0.300,526.000,0.500,604.000,1.000,225.000,5.000,0
"03/05/08","13:06:12",20909.000,"cc",28328.607,6.00,6,0.100,18447.000,0.200,1007.000,0.300,548.000,0.500,680.000,1.000,227.000,5.000,0
"03/05/08","13:06:18",20404.000,"cc",28391.529,6.00,6,0.100,18068.000,0.200,931.000,0.300,508.000,0.500,655.000,1.000,242.000,5.000,0
"03/05/08","13:06:24",20691.000,"cc",28317.762,6.00,6,0.100,18145.000,0.200,995.000,0.300,566.000,0.500,710.000,1.000,275.000,5.000,0
"03/05/08","13:06:30",19398.000,"cc",28336.248,6.00,6,0.100,16894.000,0.200,945.000,0.300,598.000,0.500,698.000,1.000,263.000,5.000,0
"03/05/08","13:06:36",18021.000,"cc",28361.723,6.00,6,0.100,15625.000,0.200,933.000,0.300,553.000,0.500,651.000,1.000,259.000,5.000,0
"03/05/08","13:06:42",17596.000,"cc",28342.781,6.00,6,0.100,15174.000,0.200,887.000,0.300,583.000,0.500,711.000,1.000,241.000,5.000,0
"03/05/08","13:06:48",17039.000,"cc",28345.709,6.00,6,0.100,14639.000,0.200,891.000,0.300,561.000,0.500,715.000,1.000,233.000,5.000,0
"03/05/08","13:06:54",16995.000,"cc",28296.938,6.00,6,0.100,14701.000,0.200,826.000,0.300,581.000,0.500,650.000,1.000,237.000,5.000,0
"03/05/08","13:07:00",16792.000,"cc",28387.061,6.00,6,0.100,14863.000,0.200,741.000,0.300,439.000,0.500,538.000,1.000,211.000,5.000,0
"03/05/08","13:07:06",17412.000,"cc",28270.365,6.00,6,0.100,15286.000,0.200,766.000,0.300,533.000,0.500,602.000,1.000,225.000,5.000,0
"03/05/08","13:07:12",17006.000,"cc",28311.547,6.00,6,0.100,15061.000,0.200,710.000,0.300,485.000,0.500,545.000,1.000,205.000,5.000,0
"03/05/08","13:07:18",17147.000,"cc",28314.313,6.00,6,0.100,15102.000,0.200,746.000,0.300,487.000,0.500,594.000,1.000,218.000,5.000,0
"03/05/08","13:07:24",16972.000,"cc",28343.816,6.00,6,0.100,14979.000,0.200,732.000,0.300,450.000,0.500,566.000,1.000,245.000,5.000,0
"03/05/08","13:07:30",17179.000,"cc",28270.072,6.00,6,0.100,15228.000,0.200,712.000,0.300,481.000,0.500,541.000,1.000,217.000,5.000,0
"03/05/08","13:07:36",17287.000,"cc",28183.565,6.00,6,0.100,15365.000,0.200,717.000,0.300,461.000,0.500,557.000,1.000,187.000,5.000,0
"03/05/08","13:07:42",17466.000,"cc",28276.035,6.00,6,0.100,15449.000,0.200,738.000,0.300,505.000,0.500,566.000,1.000,208.000,5.000,0
"03/05/08","13:07:48",18251.000,"cc",28366.205,6.00,6,0.100,16028.000,0.200,866.000,0.300,511.000,0.500,617.000,1.000,229.000,5.000,0
"03/05/08","13:07:54",18332.000,"cc",28298.627,6.00,6,0.100,16311.000,0.200,755.000,0.300,487.000,0.500,548.000,1.000,231.000,5.000,0
"03/05/08","13:08:00",18326.000,"cc",28357.848,6.00,6,0.100,16293.000,0.200,758.000,0.300,488.000,0.500,549.000,1.000,238.000,5.000,0
"03/05/08","13:08:06",18743.000,"cc",28347.607,6.00,6,0.100,16930.000,0.200,697.000,0.300,453.000,0.500,466.000,1.000,197.000,5.000,0
"03/05/08","13:08:12",18846.000,"cc",28227.195,6.00,6,0.100,16982.000,0.200,718.000,0.300,458.000,0.500,507.000,1.000,181.000,5.000,0
"03/05/08","13:08:18",19181.000,"cc",28351.881,6.00,6,0.100,17457.000,0.200,682.000,0.300,380.000,0.500,492.000,1.000,170.000,5.000,0
"03/05/08","13:08:24",19089.000,"cc",28294.277,6.00,6,0.100,17274.000,0.200,717.000,0.300,421.000,0.500,510.000,1.000,167.000,5.000,0
"03/05/08","13:08:30",19445.000,"cc",28337.750,6.00,6,0.100,17406.000,0.200,793.000,0.300,463.000,0.500,598.000,1.000,185.000,5.000,0
"03/05/08","13:08:36",18666.000,"cc",28338.086,6.00,6,0.100,16818.000,0.200,692.000,0.300,455.000,0.500,524.000,1.000,177.000,5.000,0
"03/05/08","13:08:42",18527.000,"cc",28279.344,6.00,6,0.100,16597.000,0.200,742.000,0.300,453.000,0.500,529.000,1.000,206.000,5.000,0
"03/05/08","13:08:48",18670.000,"cc",28276.303,6.00,6,0.100,16670.000,0.200,772.000,0.300,460.000,0.500,550.000,1.000,218.000,5.000,0
"03/05/08","13:08:54",18695.000,"cc",28309.316,6.00,6,0.100,16457.000,0.200,825.000,0.300,553.000,0.500,645.000,1.000,215.000,5.000,0
"03/05/08","13:09:00",17746.000,"cc",28424.273,6.00,6,0.100,15708.000,0.200,748.000,0.300,480.000,0.500,582.000,1.000,228.000,5.000,0
"03/05/08","13:09:06",17672.000,"cc",28365.785,6.00,6,0.100,15613.000,0.200,719.000,0.300,508.000,0.500,599.000,1.000,233.000,5.000,0
"03/05/08","13:09:12",17026.000,"cc",28263.492,6.00,6,0.100,15131.000,0.200,715.000,0.300,467.000,0.500,499.000,1.000,214.000,5.000,0
"03/05/08","13:09:18",16184.000,"cc",28205.301,6.00,6,0.100,14455.000,0.200,626.000,0.300,446.000,0.500,483.000,1.000,174.000,5.000,0
"03/05/08","13:09:24",16210.000,"cc",28346.986,6.00,6,0.100,14477.000,0.200,651.000,0.300,422.000,0.500,475.000,1.000,185.000,5.000,0
"03/05/08","13:09:30",16278.000,"cc",28404.031,6.00,6,0.100,14541.000,0.200,621.000,0.300,421.000,0.500,511.000,1.000,184.000,5.000,0
"03/05/08","13:09:36",15863.000,"cc",28282.359,6.00,6,0.100,14296.000,0.200,579.000,0.300,366.000,0.500,457.000,1.000,165.000,5.000,0
"03/05/08","13:09:42",15859.000,"cc",28378.647,6.00,6,0.100,14331.000,0.200,543.000,0.300,372.000,0.500,450.000,1.000,163.000,5.000,0
"03/05/08","13:09:48",16232.000,"cc",28312.486,6.00,6,0.100,14432.000,0.200,609.000,0.300,421.000,0.500,560.000,1.000,210.000,5.000,0
"03/05/08","13:09:54",16109.000,"cc",28388.588,6.00,6,0.100,14483.000,0.200,566.000,0.300,389.000,0.500,501.000,1.000,170.000,5.000,0
"03/05/08","13:10:00",16064.000,"cc",28255.213,6.00,6,0.100,14516.000,0.200,576.000,0.300,371.000,0.500,443.000,1.000,158.000,5.000,0
"03/05/08","13:10:06",16184.000,"cc",28303.443,6.00,6,0.100,14372.000,0.200,653.000,0.300,472.000,0.500,496.000,1.000,191.000,5.000,0
"03/05/08","13:10:12",17214.000,"cc",28292.764,6.00,6,0.100,15159.000,0.200,748.000,0.300,490.000,0.500,608.000,1.000,209.000,5.000,0
"03/05/08","13:10:18",16895.000,"cc",28383.494,6.00,6,0.100,15145.000,0.200,683.000,0.300,396.000,0.500,481.000,1.000,190.000,5.000,0
"03/05/08","13:10:24",16058.000,"cc",28317.809,6.00,6,0.100,14397.000,0.200,594.000,0.300,414.000,0.500,485.000,1.000,168.000,5.000,0
"03/05/08","13:10:30",16180.000,"cc",28311.231,6.00,6,0.100,14555.000,0.200,593.000,0.300,431.000,0.500,445.000,1.000,156.000,5.000,0
"03/05/08","13:10:36",16300.000,"cc",28356.635,6.00,6,0.100,14698.000,0.200,564.000,0.300,400.000,0.500,457.000,1.000,181.000,5.000,0
"03/05/08","13:10:42",16423.000,"cc",28293.998,6.00,6,0.100,14737.000,0.200,593.000,0.300,417.000,0.500,504.000,1.000,172.000,5.000,0
"03/05/08","13:10:48",16378.000,"cc",28294.736,6.00,6,0.100,14668.000,0.200,637.000,0.300,411.000,0.500,484.000,1.000,178.000,5.000,0
"03/05/08","13:10:54",16272.000,"cc",28297.266,6.00,6,0.100,14528.000,0.200,631.000,0.300,413.000,0.500,498.000,1.000,202.000,5.000,0
"03/05/08","13:11:00",16341.000,"cc",28343.807,6.00,6,0.100,14493.000,0.200,661.000,0.300,471.000,0.500,522.000,1.000,194.000,5.000,0
"03/05/08","13:11:06",16655.000,"cc",28290.867,6.00,6,0.100,14812.000,0.200,643.000,0.300,469.000,0.500,526.000,1.000,205.000,5.000,0
"03/05/08","13:11:12",16937.000,"cc",28327.822,6.00,6,0.100,14941.000,0.200,736.000,0.300,511.000,0.500,555.000,1.000,194.000,5.000,0
"03/05/08","13:11:18",16282.000,"cc",28329.000,6.00,6,0.100,14498.000,0.200,604.000,0.300,489.000,0.500,504.000,1.000,187.000,5.000,0
"03/05/08","13:11:24",16372.000,"cc",28324.750,6.00,6,0.100,14736.000,0.200,559.000,0.300,401.000,0.500,500.000,1.000,176.000,5.000,0
"03/05/08","13:11:30",17049.000,"cc",28268.197,6.00,6,0.100,15295.000,0.200,638.000,0.300,433.000,0.500,501.000,1.000,182.000,5.000,0
"03/05/08","13:11:36",17005.000,"cc",28305.463,6.00,6,0.100,15020.000,0.200,713.000,0.300,465.000,0.500,579.000,1.000,228.000,5.000,0
"03/05/08","13:11:42",17227.000,"cc",28355.299,6.00,6,0.100,15221.000,0.200,674.000,0.300,522.000,0.500,583.000,1.000,227.000,5.000,0
"03/05/08","13:11:48",17159.000,"cc",28266.338,6.00,6,0.100,15220.000,0.200,704.000,0.300,462.000,0.500,563.000,1.000,210.000,5.000,0
"03/05/08","13:11:54",17349.000,"cc",28321.854,6.00,6,0.100,15265.000,0.200,713.000,0.300,502.000,0.500,628.000,1.000,241.000,5.000,0
"03/05/08","13:12:00",17897.000,"cc",28339.096,6.00,6,0.100,15898.000,0.200,718.000,0.300,485.000,0.500,591.000,1.000,205.000,5.000,0
"03/05/08","13:12:06",17832.000,"cc",28319.090,6.00,6,0.100,16018.000,0.200,721.000,0.300,411.000,0.500,507.000,1.000,175.000,5.000,0
"03/05/08","13:12:12",17626.000,"cc",28262.231,6.00,6,0.100,15927.000,0.200,642.000,0.300,405.000,0.500,477.000,1.000,175.000,5.000,0
"03/05/08","13:12:18",17106.000,"cc",28221.082,6.00,6,0.100,15455.000,0.200,630.000,0.300,401.000,0.500,450.000,1.000,170.000,5.000,0
"03/05/08","13:12:24",17038.000,"cc",28301.166,6.00,6,0.100,15257.000,0.200,696.000,0.300,400.000,0.500,480.000,1.000,205.000,5.000,0
"03/05/08","13:12:30",17866.000,"cc",28332.318,6.00,6,0.100,15952.000,0.200,721.000,0.300,458.000,0.500,540.000,1.000,195.000,5.000,0
"03/05/08","13:12:36",18375.000,"cc",28338.383,6.00,6,0.100,16379.000,0.200,730.000,0.300,504.000,0.500,571.000,1.000,191.000,5.000,0
"03/05/08","13:12:42",18840.000,"cc",28377.350,6.00,6,0.100,17087.000,0.200,670.000,0.300,437.000,0.500,481.000,1.000,165.000,5.000,0
"03/05/08","13:12:48",18290.000,"cc",28402.934,6.00,6,0.100,16582.000,0.200,673.000,0.300,414.000,0.500,456.000,1.000,165.000,5.000,0
"03/05/08","13:12:54",17800.000,"cc",28267.416,6.00,6,0.100,15971.000,0.200,697.000,0.300,440.000,0.500,518.000,1.000,174.000,5.000,0
"03/05/08","13:13:00",18026.000,"cc",28269.119,6.00,6,0.100,16219.000,0.200,694.000,0.300,407.000,0.500,530.000,1.000,176.000,5.000,0
"03/05/08","13:13:06",18359.000,"cc",28269.576,6.00,6,0.100,16360.000,0.200,792.000,0.300,459.000,0.500,580.000,1.000,168.000,5.000,0
"03/05/08","13:13:12",18639.000,"cc",28330.799,6.00,6,0.100,16800.000,0.200,725.000,0.300,433.000,0.500,515.000,1.000,166.000,5.000,0
"03/05/08","13:13:18",18907.000,"cc",28252.857,6.00,6,0.100,17204.000,0.200,722.000,0.300,382.000,0.500,454.000,1.000,145.000,5.000,0
"03/05/08","13:13:24",19115.000,"cc",28307.611,6.00,6,0.100,17495.000,0.200,649.000,0.300,379.000,0.500,441.000,1.000,151.000,5.000,0
"03/05/08","13:13:30",19432.000,"cc",28375.611,6.00,6,0.100,17464.000,0.200,778.000,0.300,469.000,0.500,527.000,1.000,194.000,5.000,0
"03/05/08","13:13:36",19157.000,"cc",28352.227,6.00,6,0.100,17355.000,0.200,740.000,0.300,434.000,0.500,457.000,1.000,171.000,5.000,0
"03/05/08","13:13:42",19279.000,"cc",28390.104,6.00,6,0.100,17471.000,0.200,766.000,0.300,400.000,0.500,471.000,1.000,171.000,5.000,0
"03/05/08","13:13:48",19713.000,"cc",28332.510,6.00,6,0.100,17846.000,0.200,753.000,0.300,433.000,0.500,507.000,1.000,174.000,5.000,0
"03/05/08","13:13:54",19218.000,"cc",28303.533,6.00,6,0.100,17497.000,0.200,727.000,0.300,420.000,0.500,425.000,1.000,149.000,5.000,0
"03/05/08","13:14:00",19231.000,"cc",28228.184,6.00,6,0.100,17493.000,0.200,738.000,0.300,392.000,0.500,453.000,1.000,155.000,5.000,0
"03/05/08","13:14:06",19633.000,"cc",28290.143,6.00,6,0.100,17828.000,0.200,772.000,0.300,379.000,0.500,486.000,1.000,168.000,5.000,0
"03/05/08","13:14:12",19580.000,"cc",28199.949,6.00,6,0.100,17650.000,0.200,773.000,0.300,469.000,0.500,500.000,1.000,188.000,5.000,0
"03/05/08","13:14:18",18972.000,"cc",28388.445,6.00,6,0.100,17283.000,0.200,701.000,0.300,369.000,0.500,452.000,1.000,167.000,5.000,0
"03/05/08","13:14:24",19190.000,"cc",28399.961,6.00,6,0.100,17528.000,0.200,703.000,0.300,396.000,0.500,413.000,1.000,150.000,5.000,0
"03/05/08","13:14:30",18970.000,"cc",28333.963,6.00,6,0.100,17396.000,0.200,686.000,0.300,344.000,0.500,408.000,1.000,136.000,5.000,0
"03/05/08","13:14:36",18806.000,"cc",28283.289,6.00,6,0.100,17073.000,0.200,708.000,0.300,380.000,0.500,477.000,1.000,168.000,5.000,0
"03/05/08","13:14:42",19515.000,"cc",28329.135,6.00,6,0.100,17470.000,0.200,847.000,0.300,451.000,0.500,579.000,1.000,168.000,5.000,0
"03/05/08","13:14:48",19483.000,"cc",28303.168,6.00,6,0.100,17459.000,0.200,811.000,0.300,467.000,0.500,553.000,1.000,193.000,5.000,0
"03/05/08","13:14:54",19262.000,"cc",28312.529,6.00,6,0.100,17504.000,0.200,757.000,0.300,408.000,0.500,438.000,1.000,155.000,5.000,0
"03/05/08","13:15:00",18847.000,"cc",28320.065,6.00,6,0.100,17222.000,0.200,683.000,0.300,386.000,0.500,380.000,1.000,176.000,5.000,0
"03/05/08","13:15:06",18624.000,"cc",28328.250,6.00,6,0.100,17043.000,0.200,659.000,0.300,377.000,0.500,410.000,1.000,135.000,5.000,0
"03/05/08","13:15:12",18403.000,"cc",28291.512,6.00,6,0.100,16806.000,0.200,679.000,0.300,355.000,0.500,404.000,1.000,159.000,5.000,0
"03/05/08","13:15:18",18468.000,"cc",28325.609,6.00,6,0.100,16826.000,0.200,720.000,0.300,387.000,0.500,409.000,1.000,126.000,5.000,0
"03/05/08","13:15:24",18642.000,"cc",28315.926,6.00,6,0.100,16985.000,0.200,711.000,0.300,380.000,0.500,417.000,1.000,149.000,5.000,0
"03/05/08","13:15:30",18380.000,"cc",28284.147,6.00,6,0.100,16677.000,0.200,745.000,0.300,373.000,0.500,436.000,1.000,149.000,5.000,0
"03/05/08","13:15:36",18570.000,"cc",28307.594,6.00,6,0.100,16838.000,0.200,734.000,0.300,395.000,0.500,434.000,1.000,169.000,5.000,0
"03/05/08","13:15:42",18509.000,"cc",28349.109,6.00,6,0.100,16702.000,0.200,725.000,0.300,413.000,0.500,492.000,1.000,177.000,5.000,0
"03/05/08","13:15:48",18902.000,"cc",28377.332,6.00,6,0.100,16980.000,0.200,781.000,0.300,459.000,0.500,500.000,1.000,182.000,5.000,0
"03/05/08","13:15:54",18715.000,"cc",28265.873,6.00,6,0.100,16949.000,0.200,723.000,0.300,401.000,0.500,470.000,1.000,172.000,5.000,0
"03/05/08","13:16:00",18772.000,"cc",28245.596,6.00,6,0.100,16915.000,0.200,774.000,0.300,436.000,0.500,475.000,1.000,172.000,5.000,0
"03/05/08","13:16:06",18468.000,"cc",28247.223,6.00,6,0.100,16809.000,0.200,673.000,0.300,358.000,0.500,479.000,1.000,149.000,5.000,0
"03/05/08","13:16:12",18391.000,"cc",28384.936,6.00,6,0.100,16545.000,0.200,717.000,0.300,434.000,0.500,533.000,1.000,162.000,5.000,0
"03/05/08","13:16:18",18951.000,"cc",28351.367,6.00,6,0.100,16967.000,0.200,778.000,0.300,475.000,0.500,545.000,1.000,186.000,5.000,0
"03/05/08","13:16:24",18152.000,"cc",28328.912,6.00,6,0.100,16296.000,0.200,727.000,0.300,419.000,0.500,541.000,1.000,169.000,5.000,0
"03/05/08","13:16:30",17921.000,"cc",28313.803,6.00,6,0.100,16253.000,0.200,650.000,0.300,399.000,0.500,449.000,1.000,170.000,5.000,0
"03/05/08","13:16:36",17484.000,"cc",28349.664,6.00,6,0.100,15921.000,0.200,630.000,0.300,364.000,0.500,410.000,1.000,159.000,5.000,0
"03/05/08","13:16:42",17273.000,"cc",28217.994,6.00,6,0.100,15681.000,0.200,639.000,0.300,389.000,0.500,420.000,1.000,144.000,5.000,0